Theta_e
356 356 356 355 355 354 354 354 354 354 354 354 354 354 354 355 356 356 355 355 356 356 356 356 355 355 355 355 356 356 356 357 357 358 359 360 360 358 357 357 358 357 356 356 355 354 354 351 345 343 344 343 341 341 343 344 346 345 343 341 338 339 339 338 339 339 339 339 339 339 339 339 338 337 336 335 335 336 336 336 336 336 337 337 337
357 357 357 356 356 355 354 355 354 354 354 354 354 354 354 355 355 357 357 356 356 356 356 356 356 356 356 357 357 357 357 357 358 358 359 360 359 358 358 357 358 358 357 357 356 355 354 353 350 345 342 344 343 343 343 344 346 346 345 342 339 339 339 339 339 339 339 339 339 340 340 340 339 337 336 335 335 335 336 336 336 336 336 337 337
357 358 358 357 357 356 355 355 355 355 355 355 354 354 354 354 355 357 357 357 357 356 356 357 357 357 358 358 357 358 357 357 358 359 359 359 359 358 358 358 357 358 357 357 357 356 354 354 353 349 344 342 342 342 344 345 345 345 345 344 341 340 340 340 340 340 340 340 339 339 340 341 340 339 337 336 335 335 336 335 336 336 336 337 337
358 358 358 358 358 357 356 356 355 355 355 355 355 354 354 354 354 356 357 357 357 356 356 356 357 358 358 358 358 358 358 358 358 358 358 358 358 358 358 358 357 357 357 357 357 356 355 354 353 352 349 345 342 340 340 343 345 345 345 345 344 342 341 341 341 341 340 340 340 339 339 340 340 340 339 338 337 336 336 335 336 336 336 337 337
360 359 359 359 358 358 357 357 356 356 356 355 355 354 354 355 354 354 356 357 358 357 357 357 358 358 357 357 358 357 357 358 358 358 358 358 358 358 358 358 358 358 357 356 356 355 355 354 353 352 350 348 346 342 338 339 342 344 344 344 345 344 344 343 342 342 341 341 341 340 339 338 339 340 340 338 337 336 336 336 336 336 336 337 338
361 360 360 359 359 359 358 358 357 356 356 355 355 355 354 355 354 354 354 355 357 358 358 358 358 359 358 358 358 358 357 358 358 358 358 358 358 358 358 358 358 358 358 357 356 355 354 353 353 352 351 350 349 346 342 339 339 341 342 343 344 345 345 344 343 343 342 342 341 341 340 339 338 339 340 339 338 337 336 336 336 336 337 339 339
362 361 361 360 360 359 359 358 358 357 356 356 355 355 355 355 354 354 354 354 356 357 358 359 358 358 359 359 359 358 358 358 358 358 358 359 359 359 359 359 358 358 358 358 357 356 354 352 351 351 351 350 350 349 347 344 341 340 341 342 343 344 345 345 344 343 343 343 342 342 341 341 340 339 340 340 340 338 338 338 338 338 339 339 339
362 362 362 361 361 360 359 359 358 357 357 356 356 355 355 355 355 354 354 354 354 355 356 358 359 358 358 358 359 359 358 358 358 358 359 359 359 360 360 359 359 359 358 358 358 357 356 354 352 351 351 350 349 349 348 347 345 343 341 341 342 343 343 344 344 344 343 343 343 343 342 342 342 341 340 341 342 341 340 340 340 340 340 340 340
363 363 362 361 361 361 360 360 359 358 358 357 356 356 355 356 355 355 355 355 354 354 355 356 358 358 358 358 358 358 358 359 358 358 359 359 359 360 360 360 360 360 359 358 358 358 357 356 354 353 351 350 349 349 348 348 346 345 343 342 343 343 343 343 344 344 343 343 343 343 342 342 342 342 342 342 342 341 341 341 340 340 340 340 340
364 363 363 363 362 362 361 360 360 359 358 358 357 356 355 355 355 355 355 355 354 354 354 355 357 358 358 358 358 358 358 358 358 358 358 359 359 359 360 360 360 360 360 359 358 358 358 357 356 355 353 352 351 350 350 349 348 347 345 344 343 344 344 343 344 343 343 343 343 343 342 342 342 342 342 342 341 341 341 341 341 340 340 340 340
365 364 364 364 363 362 362 361 361 360 359 358 357 357 356 355 355 355 355 355 355 355 355 355 355 356 357 358 358 357 358 358 358 358 358 358 359 359 359 360 360 360 360 359 358 358 357 357 357 356 355 354 353 352 351 350 350 349 347 346 345 344 344 344 344 344 343 343 343 343 343 342 342 342 342 342 341 342 342 341 341 341 340 340 340
365 365 366 365 364 364 363 362 362 361 360 359 358 357 356 356 355 355 355 356 356 356 355 355 355 355 356 357 357 357 357 357 357 358 358 358 358 359 359 359 359 359 359 359 358 358 357 357 357 357 356 355 355 354 353 352 352 350 350 349 347 346 344 344 344 344 343 343 343 343 343 342 342 342 342 341 341 341 342 342 341 341 341 340 340
366 366 366 366 365 365 364 363 362 362 361 360 359 358 357 356 356 355 355 355 355 356 356 356 355 356 356 357 358 358 357 357 357 357 358 358 358 359 358 358 359 359 359 359 358 358 357 357 357 357 357 356 356 355 355 354 353 352 352 351 349 347 346 345 344 343 343 343 343 343 343 342 342 342 341 341 341 341 341 342 342 341 341 340 340
366 367 367 367 367 366 365 364 363 363 362 361 360 359 358 357 356 355 355 354 355 356 356 356 356 356 356 357 357 358 358 358 358 357 357 358 358 359 359 359 359 359 359 359 359 358 358 357 357 356 356 356 356 356 356 355 354 353 353 352 350 349 348 347 346 345 344 344 343 343 342 342 341 341 340 341 342 341 341 341 341 341 341 341 340
365 367 367 367 368 366 366 365 363 363 362 361 361 360 359 358 357 356 355 355 354 355 355 356 356 356 356 356 356 357 357 358 358 358 358 358 358 359 359 359 359 359 358 359 359 359 358 358 358 357 356 356 356 356 356 355 355 354 353 352 351 350 349 348 348 347 346 345 344 344 343 342 341 341 340 341 341 341 341 341 340 340 341 341 340
362 365 367 367 367 367 366 365 364 363 362 361 360 360 359 359 358 357 356 355 355 355 355 356 357 356 356 356 356 356 356 357 358 358 359 358 358 359 359 359 359 359 359 359 359 359 359 359 358 358 357 357 357 357 357 356 355 355 354 353 352 351 351 351 350 349 348 347 346 346 345 344 343 342 341 341 341 341 341 341 341 340 340 340 340
362 363 365 366 367 367 366 366 365 364 362 362 360 359 359 359 359 358 357 356 356 355 355 356 357 357 357 357 356 356 356 357 358 358 359 359 359 360 360 359 359 359 359 359 359 359 359 359 359 359 358 358 358 357 357 357 357 356 355 354 353 352 352 351 350 349 349 348 348 347 347 346 345 344 343 342 341 341 341 342 341 341 340 340 340
362 363 364 365 366 366 366 366 366 364 363 362 361 360 359 359 359 358 358 357 356 356 355 356 356 357 358 358 358 357 357 357 358 358 359 360 360 360 360 359 359 359 359 359 359 359 359 359 358 359 359 358 358 358 358 358 358 357 356 355 354 353 353 352 351 350 350 349 348 348 347 347 346 345 344 343 342 342 342 342 342 341 340 340 340
362 362 363 364 365 366 366 367 366 365 365 363 362 362 360 359 360 359 358 357 357 356 356 356 356 357 357 358 359 359 358 358 358 359 360 360 360 361 360 359 358 358 359 359 359 359 359 358 358 358 358 358 358 358 358 358 358 358 357 356 355 355 354 354 352 352 351 349 349 348 347 347 347 346 345 345 343 342 342 342 342 341 341 341 340
362 362 362 363 365 365 366 367 366 366 365 364 363 363 361 361 360 359 359 358 357 357 356 356 356 356 356 357 359 359 359 359 358 359 359 359 361 361 361 360 358 359 359 359 359 359 359 358 358 358 358 358 358 358 358 358 358 358 357 356 356 356 356 355 354 353 352 351 350 350 348 348 347 346 346 345 344 343 343 343 342 342 341 341 340
358 360 362 362 363 364 365 366 366 366 365 365 365 364 363 362 361 360 360 359 358 358 357 356 356 356 356 357 357 358 360 360 360 360 359 359 360 361 362 361 360 360 359 359 359 359 359 360 359 359 359 359 358 358 358 358 358 357 356 356 356 356 356 355 355 354 353 352 351 350 350 349 348 347 346 346 345 344 344 343 343 343 342 341 341
354 355 359 361 363 364 365 366 366 366 366 365 365 364 364 363 362 362 361 360 360 359 358 357 357 357 357 357 357 358 359 359 360 360 360 360 360 360 361 362 362 362 361 360 360 360 360 360 361 361 361 361 361 360 359 359 358 358 357 357 357 356 356 355 355 353 351 350 350 350 350 349 348 348 347 346 346 345 345 344 344 343 343 342 342
358 354 354 358 362 363 365 366 367 367 367 366 366 365 365 365 364 363 363 362 362 361 360 360 359 358 358 358 359 359 359 359 360 360 361 361 361 361 361 361 362 363 362 361 361 362 362 362 362 363 362 362 362 362 361 360 359 359 359 358 358 358 356 354 351 348 347 346 347 348 348 349 349 349 348 348 347 347 346 346 345 344 343 343 342
363 358 353 355 360 363 365 367 367 368 367 367 366 366 366 366 366 365 364 364 364 364 363 362 361 361 360 360 360 362 361 362 362 361 361 361 362 362 362 362 362 362 363 363 363 362 363 363 362 362 362 362 362 362 362 361 361 360 360 359 359 358 355 349 345 345 344 343 343 345 346 347 349 350 350 349 349 348 347 347 345 344 343 343 343
365 361 355 355 359 362 365 367 368 368 368 368 367 367 367 367 367 367 366 366 365 365 365 364 364 363 362 361 361 362 363 363 364 363 363 363 363 363 363 363 363 363 362 362 362 362 362 362 362 362 362 361 361 361 361 361 361 361 361 360 359 358 355 347 341 342 342 340 340 342 343 345 347 349 350 350 350 349 349 347 345 345 344 343 343
369 364 359 357 359 362 366 368 369 369 369 369 369 368 368 368 368 368 367 367 367 367 366 366 365 364 363 363 362 362 362 363 364 365 365 365 365 364 364 364 364 363 362 362 361 361 360 360 360 360 360 360 360 360 360 361 361 360 360 360 358 357 355 348 341 340 340 338 338 339 339 342 345 347 347 349 349 350 349 347 345 344 343 343 343
372 368 362 359 361 364 367 368 370 370 370 370 370 369 369 369 369 369 369 368 367 367 367 366 366 365 364 364 363 363 363 363 364 366 367 367 367 366 365 365 364 363 362 361 360 360 358 358 358 358 359 359 359 358 358 357 357 357 356 356 355 354 353 350 345 342 340 339 339 338 339 341 343 343 343 345 347 348 348 347 345 344 343 342 342
372 370 364 362 364 365 367 369 371 371 372 371 371 371 371 371 370 369 369 369 369 368 368 367 367 366 366 366 365 365 363 363 363 364 365 366 366 366 366 366 364 362 362 361 360 358 357 356 355 354 354 354 354 354 353 352 352 352 352 351 351 350 350 349 348 346 344 343 342 341 341 342 342 341 341 342 344 345 346 345 345 344 343 342 341
371 370 367 366 366 367 368 371 371 371 371 369 368 367 368 369 371 371 370 370 370 369 369 369 368 368 367 367 366 365 363 363 363 363 363 363 362 362 363 363 362 361 360 359 358 357 356 354 353 351 350 349 348 347 346 345 344 344 342 341 340 339 339 340 341 341 342 343 343 343 343 343 343 343 343 342 342 343 344 344 343 343 342 341 341
370 370 369 368 368 369 370 370 369 369 367 365 361 359 359 362 367 369 369 370 370 370 370 369 369 369 368 368 367 366 366 364 362 361 361 361 360 361 360 360 359 359 358 357 355 353 350 348 346 343 341 339 338 337 336 335 334 334 333 332 332 331 332 332 333 333 334 335 337 339 341 342 343 343 344 343 343 343 343 343 343 343 342 341 340
369 370 370 369 370 371 369 366 364 363 362 361 359 356 354 355 360 364 367 369 369 369 370 370 369 369 368 367 366 364 363 362 361 360 360 358 356 354 350 348 346 345 344 344 343 341 338 337 336 334 333 333 332 332 332 332 332 331 331 330 330 330 331 331 330 330 330 331 332 333 335 337 339 340 342 343 343 344 344 343 343 342 341 341 340
368 369 370 369 370 370 367 364 360 357 355 355 356 356 355 351 348 351 358 364 366 367 368 368 368 368 366 365 365 361 357 356 355 352 349 345 341 338 335 334 333 332 331 331 332 333 332 332 332 332 332 332 331 331 331 330 330 330 329 329 329 329 328 328 328 328 328 328 329 330 330 332 334 335 336 338 339 341 342 343 342 341 341 341 340
366 367 369 369 368 367 365 361 356 353 353 353 353 356 357 351 342 339 344 351 356 359 359 358 358 358 357 357 358 354 348 343 339 337 335 333 332 332 332 332 332 332 331 331 332 333 332 332 332 331 331 330 330 329 329 329 328 328 328 327 327 326 326 327 327 326 326 327 327 328 329 330 331 332 333 335 336 338 339 341 341 341 340 340 339
364 365 367 369 367 365 362 358 354 351 352 353 353 353 353 351 345 340 339 340 342 344 344 343 343 344 344 343 343 342 338 334 332 333 332 332 332 332 332 331 331 332 332 332 332 332 331 331 330 330 329 329 329 329 328 328 328 328 327 327 326 325 326 326 326 326 326 327 327 328 329 330 331 332 333 334 336 337 338 339 340 339 339 339 339
361 362 363 365 367 364 359 356 353 350 349 349 349 348 347 345 343 341 338 336 335 335 335 336 336 336 336 336 336 336 335 334 334 334 333 333 332 332 331 331 332 332 332 332 331 331 330 330 329 329 329 329 329 329 328 328 328 327 327 326 326 326 326 326 325 325 326 326 327 327 328 328 329 330 332 333 335 337 338 337 337 337 337 338 337
358 358 357 359 363 363 358 354 352 350 348 346 345 344 342 340 338 337 337 336 335 334 334 335 336 336 335 335 335 335 335 335 334 334 333 333 332 331 331 332 332 332 332 331 330 330 329 328 328 329 328 328 329 329 328 327 327 327 326 326 326 326 326 325 325 325 325 325 325 325 325 325 326 327 328 329 331 332 332 331 331 330 329 330 329
354 354 354 356 359 360 357 352 349 346 345 343 341 339 338 337 336 336 336 336 336 336 335 336 336 336 336 336 336 335 335 335 334 334 333 333 332 332 331 331 332 332 332 331 330 328 328 328 327 327 326 326 327 328 327 327 327 327 326 326 326 326 326 325 325 325 325 324 324 324 324 324 324 325 325 325 325 325 325 324 325 325 324 324 323
350 350 351 354 357 357 354 349 344 342 340 339 338 337 336 336 336 336 337 337 337 337 337 337 337 336 336 336 336 336 335 335 334 334 333 333 333 332 332 331 331 332 332 331 329 328 327 327 326 325 324 325 326 326 326 327 327 326 326 326 326 326 326 325 324 324 324 324 323 323 323 323 323 323 323 323 323 323 323 323 323 322 322 322 322
347 347 348 351 353 354 350 345 342 340 338 337 337 337 336 337 337 337 337 337 337 337 337 338 337 337 336 336 336 335 335 334 334 334 333 333 332 332 332 331 332 332 332 331 330 328 327 326 326 326 325 325 325 323 324 326 327 326 326 326 327 326 325 324 323 323 323 323 322 322 322 322 322 322 322 322 322 322 323 323 322 322 322 322 322
345 345 346 347 348 350 348 345 341 339 338 338 338 338 338 338 337 337 336 336 336 337 338 338 338 337 336 335 334 332 332 332 333 333 332 332 332 332 332 332 331 331 331 331 330 330 329 328 328 328 326 325 324 323 323 325 327 326 326 326 325 325 324 323 322 322 322 322 322 321 321 321 321 321 321 321 321 321 322 322 322 322 322 322 322
343 343 344 344 344 345 344 343 340 338 338 339 339 339 337 337 336 335 335 335 336 337 337 338 338 338 337 335 333 330 329 331 333 332 332 332 332 331 331 331 331 330 329 329 329 330 329 328 328 328 327 326 325 323 323 324 325 325 325 324 323 322 322 321 321 322 322 321 321 321 321 320 320 320 320 320 320 321 321 321 321 321 321 321 322
339 339 340 340 341 341 341 341 340 340 340 340 340 338 336 335 334 333 333 334 336 337 337 337 337 336 335 335 333 332 332 333 333 333 333 332 331 331 331 331 330 329 328 327 326 327 327 326 327 327 328 327 326 325 323 322 322 322 322 322 321 321 321 320 320 321 321 320 320 320 320 320 319 319 319 319 319 319 320 320 320 321 321 321 321
334 334 334 334 335 335 335 337 338 338 338 339 338 337 335 333 333 333 333 334 334 336 336 336 336 335 335 335 334 334 334 333 333 333 333 332 332 332 332 331 331 330 329 328 326 326 326 327 327 328 328 328 327 326 324 322 321 321 321 321 321 321 321 320 320 320 321 321 321 321 322 322 321 320 319 319 319 319 319 319 319 319 319 320 320
330 329 329 329 329 329 329 330 331 331 332 333 334 334 334 333 333 333 334 333 333 334 334 334 335 335 335 335 335 335 334 334 334 334 333 332 332 332 332 333 332 332 331 330 329 328 328 329 329 329 328 328 328 327 325 323 322 321 321 321 321 321 321 321 320 321 321 321 321 321 323 323 323 323 322 321 321 321 320 320 319 318 317 317 317
327 326 326 325 325 324 325 325 325 325 326 327 327 327 328 328 328 328 328 328 328 329 329 330 331 332 333 333 334 333 333 333 333 333 333 333 333 332 332 332 332 332 331 330 330 330 329 328 328 329 328 328 328 327 325 324 323 322 322 322 321 321 321 321 321 321 322 321 320 320 321 322 323 324 324 323 323 323 322 322 321 321 320 320 320
324 324 323 322 322 321 321 321 321 321 321 321 320 320 321 321 322 322 322 322 322 323 323 324 326 327 327 328 329 329 330 331 331 331 332 333 333 333 333 333 332 332 331 331 330 330 329 328 328 328 328 328 327 327 326 325 324 323 323 323 323 322 322 322 322 322 322 322 321 321 320 321 322 323 323 323 322 321 322 322 323 323 322 322 322
320 320 320 319 319 318 318 318 318 317 317 317 317 316 316 317 317 317 317 318 318 318 318 318 319 320 320 321 322 323 325 326 328 328 329 330 330 331 331 332 332 332 331 331 331 331 331 330 328 327 327 327 327 326 326 325 325 324 324 324 325 324 324 324 323 323 323 323 322 322 321 322 322 323 323 322 321 320 320 321 322 322 323 323 323
316 316 316 316 316 316 316 315 315 315 315 314 314 314 313 313 313 314 314 314 314 314 314 314 314 315 315 315 316 317 319 321 323 324 325 326 326 327 328 329 329 329 329 329 330 330 331 330 328 327 327 326 326 325 325 325 325 325 325 325 326 325 325 325 325 325 324 324 324 323 323 322 322 322 321 320 319 319 319 320 320 321 321 321 321
314 314 314 314 314 313 313 313 313 312 312 312 312 311 311 311 311 311 311 310 310 311 311 311 311 311 311 312 312 313 315 316 317 318 319 319 321 322 323 324 325 325 325 325 325 326 326 326 326 326 326 326 325 325 324 324 324 324 325 325 325 325 324 324 324 323 323 324 323 323 322 321 320 320 319 317 317 317 317 317 318 318 319 319 319
311 311 311 311 311 311 311 311 310 310 310 309 309 309 309 308 308 308 308 308 308 308 308 308 308 308 308 309 309 309 310 311 312 313 313 314 314 315 317 318 319 319 319 319 319 320 320 321 322 323 324 324 324 324 323 323 323 323 324 324 323 322 322 322 322 321 321 321 321 321 320 318 317 317 317 316 316 316 315 315 316 315 316 316 316
309 308 308 308 308 308 308 308 308 308 308 308 307 307 306 306 306 306 306 306 306 305 305 305 305 306 306 306 306 307 307 308 308 309 310 310 310 310 311 312 313 314 314 314 315 315 316 316 317 319 320 321 321 321 321 320 320 321 321 322 321 321 320 320 320 319 319 319 318 318 318 317 316 316 315 315 315 315 314 315 315 314 314 314 315
Wind_Speed
41 41 41 41 40 40 40 41 40 39 38 36 36 37 38 37 37 37 37 36 35 35 35 35 35 35 35 35 34 33 33 33 32 32 32 32 32 31 31 30 30 31 30 29 28 28 28 28 29 30 30 28 28 28 27 24 23 23 23 24 25 24 25 24 18 16 20 21 21 21 21 21 24 27 30 32 34 34 32 31 29 27 26 26 25
43 43 42 41 42 42 41 41 40 39 38 36 36 36 36 36 36 36 36 36 36 36 35 35 35 35 36 36 35 34 34 34 34 34 34 34 34 33 33 33 32 32 32 32 31 30 31 30 29 30 31 32 32 31 30 29 26 25 24 25 27 27 26 27 23 19 20 23 23 22 21 20 22 24 27 30 33 34 34 33 31 30 28 27 27
44 43 41 41 42 41 40 39 39 38 38 37 37 37 36 36 35 35 36 37 37 37 37 36 36 36 36 37 37 36 36 36 36 36 36 36 36 36 35 35 34 34 34 34 34 33 33 34 33 31 31 33 35 35 34 33 31 28 27 27 28 28 28 28 27 23 22 24 25 24 24 23 23 23 24 27 30 33 35 34 33 32 30 29 28
41 41 41 41 41 40 40 39 39 39 39 38 38 38 37 36 35 35 36 36 37 38 38 38 37 36 37 37 38 38 39 38 38 38 38 38 38 37 37 36 36 36 37 37 36 35 36 36 36 34 32 33 34 36 36 36 35 33 31 30 30 30 30 29 30 28 25 24 26 26 26 26 26 24 23 25 29 32 34 34 34 33 32 30 29
38 39 40 40 40 40 41 41 40 40 40 39 39 39 38 36 36 37 36 36 37 38 38 37 38 38 39 40 40 40 40 40 39 39 39 39 39 39 38 37 38 38 39 39 38 38 38 38 38 36 35 35 34 35 36 37 38 37 36 34 32 32 32 31 31 31 28 27 28 28 26 25 26 25 24 25 28 32 34 35 35 34 33 32 31
38 39 39 39 40 40 41 41 41 41 41 40 40 39 38 38 38 38 38 38 37 37 38 38 39 40 41 42 42 42 42 41 41 41 40 40 40 39 39 38 39 39 40 40 40 40 40 40 39 37 36 37 37 36 36 38 39 38 38 37 36 34 32 32 32 31 31 31 30 29 28 27 26 26 25 26 28 31 33 35 36 36 35 34 34
39 39 38 38 38 40 41 41 41 41 41 41 40 39 39 39 39 39 39 40 39 38 38 39 40 41 42 42 42 43 42 42 42 42 41 40 40 39 39 39 39 39 40 41 41 41 41 41 40 39 38 38 39 39 38 39 39 39 39 39 37 35 33 32 32 31 31 31 30 30 31 30 29 28 27 26 28 31 33 33 34 37 37 36 36
38 38 38 38 39 40 41 41 41 41 41 40 40 40 40 40 39 39 40 40 41 40 40 40 41 41 42 42 42 43 42 41 41 41 41 41 40 40 40 40 40 40 40 41 41 40 41 41 41 40 40 40 41 41 40 40 39 39 40 39 37 35 34 33 31 31 31 30 30 30 30 29 30 30 28 25 27 32 35 34 34 35 36 37 37
38 38 38 39 40 40 39 39 39 40 39 39 40 40 40 39 39 39 40 41 41 41 41 40 40 40 41 42 43 42 41 41 42 42 42 41 41 41 41 40 40 40 40 40 40 40 40 40 41 41 41 42 42 42 42 42 40 40 40 39 38 36 35 33 31 30 29 28 29 29 26 26 29 29 28 29 32 34 34 32 33 34 33 35 37
38 38 38 38 39 38 38 38 38 38 38 39 40 40 40 39 39 39 40 41 41 41 41 40 40 40 41 42 43 42 41 42 43 44 44 44 42 41 40 40 40 40 39 39 38 39 39 39 40 41 42 43 43 43 43 43 43 43 42 40 39 37 36 34 33 31 29 27 29 28 25 26 31 32 32 35 37 34 30 30 33 33 29 28 32
36 37 36 36 37 37 37 37 36 37 38 38 39 40 40 39 38 39 40 40 41 40 40 40 41 41 42 43 43 42 42 43 44 45 46 46 44 41 40 40 39 39 38 38 37 38 39 40 40 40 41 43 44 45 45 45 45 45 45 44 42 41 39 37 36 34 31 30 31 30 27 29 34 35 35 36 36 34 33 32 32 30 26 23 24
35 35 36 36 36 36 36 36 36 37 37 38 38 39 38 38 39 39 39 40 40 40 41 42 43 42 42 42 43 43 44 45 45 46 46 46 45 43 41 39 39 39 38 38 38 38 38 39 40 40 41 42 44 45 46 47 47 47 48 47 46 45 44 42 41 38 35 33 33 32 32 34 35 36 36 36 36 35 34 33 32 32 30 27 25
34 35 36 36 36 37 37 37 37 38 38 38 38 37 37 38 39 40 40 40 39 39 41 43 43 42 41 42 43 43 44 45 45 45 46 46 46 45 43 40 39 39 39 38 38 38 38 38 38 39 41 41 43 44 45 46 48 48 49 49 49 48 48 48 48 45 41 38 35 36 39 38 37 39 41 39 36 33 32 33 34 33 32 32 34
33 35 36 36 37 37 38 38 38 38 39 39 38 37 38 39 40 40 39 38 38 40 41 42 42 43 42 42 43 43 44 44 45 45 46 46 46 46 45 42 40 39 39 39 38 39 39 39 38 39 40 40 41 42 43 45 45 46 48 49 50 51 51 52 53 51 48 45 42 43 45 42 42 45 45 39 36 35 35 36 37 37 38 39 41
32 34 35 37 37 38 38 38 38 38 38 39 38 39 39 40 40 40 38 37 39 40 40 41 42 43 42 42 42 42 44 44 44 45 46 46 46 46 46 44 41 39 39 39 39 40 40 39 40 40 40 40 40 41 42 43 43 43 44 47 49 51 52 54 55 54 53 52 50 51 51 48 47 48 45 39 38 40 40 40 41 39 38 38 38
31 33 34 37 38 38 38 37 37 38 38 38 38 38 38 39 39 39 38 38 39 39 39 40 41 42 42 42 41 42 43 42 42 44 45 46 46 45 45 44 42 40 40 39 39 40 40 40 40 41 41 41 40 41 41 41 41 41 42 44 46 48 51 54 55 54 55 55 55 56 56 54 50 48 45 41 40 40 39 38 37 33 29 29 30
32 32 33 36 38 38 39 38 37 38 38 38 38 38 38 39 39 39 38 38 38 38 39 39 41 42 41 40 41 42 42 40 41 43 43 43 44 44 44 44 42 41 41 40 40 40 40 41 41 41 42 42 42 42 41 40 41 41 42 43 42 44 50 51 48 49 53 55 56 57 58 57 54 50 47 43 43 41 36 34 33 30 27 24 23
32 32 33 36 37 38 39 40 39 38 38 38 38 38 38 39 39 40 39 39 39 39 39 39 39 40 39 39 41 41 39 37 38 39 40 40 42 43 43 42 41 41 41 40 40 40 40 42 42 42 43 43 43 43 41 40 42 43 42 41 39 44 49 44 39 42 46 48 52 55 56 58 57 54 51 48 47 43 40 39 37 32 30 27 24
33 33 33 34 36 38 40 40 41 40 39 39 39 39 39 39 40 40 40 39 39 39 38 37 37 38 38 39 39 39 36 35 34 35 36 37 39 42 42 40 39 40 40 39 40 40 41 42 42 43 45 45 44 44 43 42 43 44 44 40 40 45 46 38 35 38 38 40 45 49 51 54 55 55 56 55 51 47 46 47 43 36 34 33 29
34 34 34 33 35 37 39 40 41 41 41 41 40 39 39 39 38 38 38 37 37 36 36 36 36 37 37 36 36 36 35 33 32 32 33 34 37 39 41 41 40 39 39 39 39 39 40 41 41 42 44 45 46 46 45 46 46 46 45 42 42 47 45 37 36 37 36 39 43 43 45 48 48 49 53 55 53 51 52 52 49 44 40 37 33
28 30 32 33 34 36 37 39 41 42 42 41 39 39 38 37 36 36 36 36 35 35 35 35 34 34 35 34 34 34 33 33 33 32 32 33 34 36 40 43 42 40 39 39 39 38 38 38 40 41 43 45 47 47 47 48 48 48 48 47 48 50 46 40 38 37 35 37 38 38 40 42 42 44 47 50 53 53 54 54 54 52 48 41 33
21 24 27 30 33 35 36 37 38 39 40 39 37 36 36 35 35 35 34 34 34 34 34 33 32 32 32 32 33 32 32 32 33 34 34 34 33 35 38 42 42 41 40 38 37 37 37 38 40 41 43 45 46 46 47 47 47 49 51 52 53 52 49 46 41 32 25 24 26 32 38 38 38 41 43 45 48 50 51 54 56 53 49 44 37
16 21 24 27 30 32 35 36 36 36 37 37 36 35 35 34 33 33 33 32 31 31 31 31 30 29 29 29 29 30 30 31 32 33 34 34 34 35 37 38 40 41 41 38 37 37 38 40 41 42 43 44 44 44 45 44 44 46 49 51 53 52 51 48 36 22 17 22 29 34 39 38 38 39 40 42 45 47 48 50 51 47 43 43 44
11 18 24 27 28 30 32 34 35 35 35 35 35 33 33 33 32 32 32 31 29 28 28 28 27 26 26 26 25 25 26 27 30 32 33 33 34 34 35 36 37 39 41 40 39 37 37 37 37 37 37 38 39 40 41 42 42 43 46 48 49 49 49 41 24 13 19 30 37 40 41 41 40 40 40 41 42 43 45 45 43 41 42 46 51
9 16 23 26 28 29 30 31 33 34 34 34 34 32 31 31 30 29 30 29 28 26 25 25 26 25 24 24 24 24 23 23 26 29 30 32 32 32 33 34 35 37 40 40 38 34 33 32 31 30 30 31 32 34 35 37 38 39 41 43 43 45 46 34 16 14 24 35 38 38 40 44 44 43 41 40 38 40 42 41 38 37 41 46 49
10 14 20 24 26 27 28 28 30 31 31 33 33 33 33 32 29 28 28 28 27 25 23 24 24 23 23 23 23 24 23 22 23 24 27 29 31 32 33 33 34 36 39 40 38 35 33 30 28 27 26 26 26 27 29 30 32 33 35 37 36 38 39 29 13 18 26 35 37 36 40 47 48 45 41 38 37 40 41 38 35 35 38 42 45
10 12 17 21 23 24 26 27 27 27 28 29 30 30 30 30 28 27 27 25 23 22 22 22 22 22 21 21 22 23 24 22 21 21 21 23 25 27 29 31 33 35 37 39 39 37 35 32 30 29 29 29 29 30 30 30 30 31 31 32 32 31 33 30 18 16 23 30 34 35 40 46 48 47 44 41 41 44 44 39 36 36 38 41 41
10 11 15 18 21 23 25 25 25 24 24 24 23 22 23 24 25 25 26 26 23 22 22 22 22 23 22 22 21 21 21 21 20 19 18 18 19 20 22 24 26 27 28 29 30 29 29 28 26 25 25 25 25 25 25 24 24 25 25 26 27 27 28 28 25 20 20 24 28 31 36 40 44 46 45 43 44 48 47 42 38 37 38 39 36
9 8 12 15 18 20 22 23 24 25 24 22 19 17 16 18 20 22 24 25 26 25 25 25 26 26 25 23 22 20 20 21 21 19 16 15 14 13 13 12 12 12 12 13 13 13 13 13 13 12 12 13 14 15 17 18 19 21 22 22 24 25 26 26 25 24 23 22 23 27 31 35 39 42 42 41 44 48 48 44 39 36 35 35 35
7 3 5 11 16 18 20 22 24 26 25 23 20 16 12 12 15 17 20 22 24 25 25 25 27 26 24 22 21 22 22 22 19 16 14 12 11 10 9 8 8 8 7 7 7 6 6 5 6 7 8 10 11 13 14 16 18 20 22 22 23 24 26 28 28 28 27 27 26 26 29 32 35 37 38 39 42 44 45 44 42 38 36 35 34
4 2 1 7 14 18 21 22 24 25 24 24 23 20 15 10 8 11 15 18 20 21 22 23 24 24 23 22 20 18 18 18 17 15 13 12 10 9 9 8 7 7 7 7 4 1 1 2 4 6 7 9 10 12 13 15 17 20 22 23 24 26 27 28 30 30 30 30 29 29 30 31 33 35 36 37 39 41 41 41 40 38 36 35 33
3 2 2 5 12 18 22 23 24 24 23 23 23 22 20 17 13 9 7 11 14 16 18 18 19 19 20 19 18 18 18 18 16 15 13 12 10 9 8 7 5 5 5 5 5 7 7 7 8 9 10 10 11 12 13 15 17 19 21 22 25 27 27 28 29 29 30 30 30 30 31 30 31 33 35 35 37 37 37 36 35 35 35 35 35
4 2 3 5 11 19 23 24 24 25 25 24 24 24 23 22 20 19 17 13 12 12 13 14 16 17 17 16 16 18 20 18 17 15 14 13 12 11 10 9 8 7 7 9 11 12 11 11 11 11 11 11 11 12 13 15 16 17 18 19 21 25 26 27 27 28 29 29 29 30 31 31 31 33 33 34 34 34 33 32 32 32 31 31 32
5 2 3 5 11 19 23 24 24 25 26 26 26 24 24 25 26 26 24 22 20 19 19 19 19 19 20 19 18 19 19 18 16 16 15 14 14 13 12 12 13 12 11 13 15 15 13 12 12 11 11 10 11 11 12 13 14 15 16 17 18 20 23 24 25 27 28 29 29 29 30 30 30 31 31 31 31 31 30 29 28 27 27 28 29
2 1 0 3 9 17 22 24 25 25 24 25 25 25 26 27 27 27 26 24 23 23 23 23 23 21 21 21 20 20 19 18 18 17 17 16 16 15 14 16 17 16 16 16 16 15 14 14 13 12 11 11 10 11 12 13 14 14 15 17 17 18 20 22 24 25 25 25 25 25 25 25 26 27 28 28 28 27 24 21 20 21 22 24 23
2 2 2 2 7 16 21 23 25 27 26 26 26 26 26 26 25 24 25 26 26 25 25 26 26 25 23 23 22 21 20 20 19 18 17 17 16 15 17 19 20 18 17 16 15 15 15 14 13 12 11 11 11 11 12 14 15 15 14 14 15 17 20 22 23 22 22 21 22 22 22 22 21 19 16 13 12 11 7 2 3 4 6 7 8
3 3 4 5 8 15 19 20 22 25 25 25 26 25 25 25 25 26 26 26 26 25 25 25 26 26 25 24 23 22 21 20 18 17 17 16 15 15 17 20 20 18 17 15 14 14 14 13 12 12 12 12 12 12 13 13 14 13 12 12 13 16 18 18 18 19 19 19 20 21 22 22 21 18 16 16 16 16 16 19 21 24 29 33 33
6 5 6 8 11 15 19 21 22 23 24 23 24 25 24 22 23 24 24 24 25 25 24 23 23 24 24 24 23 22 22 20 19 17 16 15 15 16 17 18 18 17 15 14 12 13 13 12 11 11 12 11 11 11 12 12 11 11 10 10 12 13 15 15 16 16 17 18 19 19 20 21 22 22 21 20 21 23 25 27 30 32 36 38 37
6 6 7 10 14 19 23 24 23 24 25 25 24 25 24 21 19 20 22 22 23 23 22 22 22 23 24 24 23 22 22 20 19 17 16 14 13 13 14 15 15 14 13 12 11 11 11 10 9 9 9 9 9 9 10 9 9 9 8 8 10 12 12 13 14 14 15 16 17 18 19 20 22 23 24 24 24 22 21 23 28 33 36 36 36
10 10 11 13 17 21 24 24 23 22 24 25 24 24 25 23 20 20 21 23 24 23 23 23 23 23 23 22 20 20 20 19 18 17 15 14 12 12 12 13 13 12 11 10 10 9 8 7 6 6 7 7 8 8 8 7 6 7 7 7 9 10 10 11 12 13 14 15 16 18 20 22 23 25 26 25 24 22 20 20 22 26 30 33 35
18 18 17 16 18 20 22 24 24 23 23 24 24 24 25 25 23 22 23 25 25 25 24 23 22 22 20 17 15 16 17 18 17 15 14 13 12 11 11 11 10 10 10 9 8 7 5 5 5 5 5 5 6 7 7 5 5 5 6 7 8 9 9 10 11 12 14 15 17 19 20 22 24 25 25 25 25 25 25 24 23 24 25 27 29
24 23 22 21 21 21 21 21 22 23 23 23 23 24 24 24 24 24 24 26 26 26 25 24 22 21 18 15 14 14 16 17 16 14 13 12 12 12 11 9 8 8 7 6 6 5 4 4 5 5 4 4 5 6 6 5 4 4 5 5 6 8 8 9 10 12 13 14 16 17 18 19 21 22 23 24 25 26 26 26 25 25 24 24 26
27 26 27 27 26 26 25 24 24 24 23 21 20 21 21 22 22 22 22 22 23 24 23 21 19 18 16 14 13 13 14 14 13 12 12 11 11 12 11 10 8 7 5 4 3 3 2 3 4 4 4 4 4 5 5 6 5 5 5 4 4 5 7 8 8 9 9 10 11 13 14 16 18 19 20 22 23 24 25 26 27 26 26 25 24
30 29 30 30 30 29 29 30 29 28 27 26 25 22 22 22 21 21 21 21 21 20 20 18 16 15 13 12 12 12 12 12 12 11 10 9 9 9 10 9 8 7 6 5 4 4 3 3 3 3 3 3 3 4 4 5 5 5 5 4 3 2 4 6 6 6 6 7 9 11 12 14 15 15 16 16 18 19 20 21 22 23 23 23 23
32 31 31 31 30 30 30 30 31 31 31 31 30 28 27 26 26 25 25 25 24 24 23 22 21 21 19 18 17 17 17 17 16 14 12 10 8 6 6 6 6 7 7 7 6 6 6 6 5 3 2 2 3 3 3 4 4 4 4 4 3 2 3 4 4 3 4 6 8 9 10 11 12 13 13 13 12 12 12 12 13 14 15 16 16
33 33 33 31 31 31 31 31 31 31 31 31 30 28 28 28 28 27 27 27 27 27 26 26 26 26 25 24 23 22 21 21 19 18 16 14 11 8 6 5 4 4 5 5 5 5 5 5 5 4 3 2 3 3 3 3 3 3 2 3 3 2 1 1 1 1 1 3 5 7 7 7 7 8 8 8 8 8 7 5 6 7 9 10 10
35 35 34 32 31 32 32 31 31 31 30 29 29 28 27 27 28 28 27 27 28 27 27 27 27 26 26 25 24 24 23 22 21 19 18 16 15 13 10 7 6 4 3 4 4 3 2 0 2 3 3 3 4 4 3 3 3 2 2 2 3 3 3 2 2 2 2 2 3 3 4 5 5 5 5 6 6 6 6 5 3 3 6 7 9
36 35 34 33 32 31 30 30 30 30 29 28 28 28 28 28 28 27 27 27 27 27 26 26 26 26 26 25 25 24 23 23 21 20 19 17 16 14 13 11 10 8 6 5 5 4 5 4 2 0 1 1 2 2 2 2 2 2 2 2 3 4 4 4 4 4 4 3 3 4 5 5 4 4 4 5 5 4 3 2 1 1 3 5 6
35 35 35 34 33 31 29 29 29 28 28 28 28 28 29 29 28 27 27 27 27 26 27 27 26 26 25 25 24 24 24 23 22 21 21 19 17 15 13 11 11 10 10 9 8 6 4 3 2 1 1 0 0 0 0 0 1 2 2 3 3 4 4 4 4 4 4 4 4 4 4 3 3 3 2 3 3 3 3 2 1 1 3 5 6
35 35 34 33 32 30 29 30 30 29 29 29 29 28 29 29 28 28 27 27 27 27 27 28 28 27 26 25 25 25 24 24 23 23 22 21 21 19 18 16 14 14 13 13 12 10 8 7 5 3 2 1 1 1 2 2 2 3 3 4 5 6 6 6 6 5 4 4 4 4 3 2 1 1 1 1 1 2 3 4 3 2 2 2 4
34 35 34 32 31 30 29 30 29 28 28 29 28 28 28 29 28 28 27 27 27 27 27 27 27 27 27 26 25 25 25 25 24 24 23 22 22 22 22 21 20 18 17 16 15 14 13 11 10 8 5 4 2 1 1 2 2 2 3 4 6 7 7 7 8 7 6 5 4 4 4 3 2 1 1 0 0 1 1 2 2 2 2 2 2
Wind_Direction
199 201 202 203 205 207 209 210 212 213 214 214 214 214 213 212 213 214 214 215 216 217 219 220 222 222 221 222 224 226 227 226 227 226 224 224 225 225 226 225 225 226 225 225 226 226 227 228 228 226 222 220 220 221 224 229 233 236 240 238 232 230 228 222 221 239 243 239 239 242 243 246 246 243 239 239 239 238 237 240 242 243 246 248 248
199 201 202 203 205 207 209 210 211 212 213 215 216 217 216 215 215 214 214 215 215 216 218 219 220 220 220 221 223 225 227 227 226 224 223 223 223 224 224 224 225 225 224 224 225 225 226 228 229 229 226 224 224 223 226 230 234 237 237 235 231 230 228 225 223 231 243 244 241 239 241 244 245 244 242 241 241 239 237 237 238 239 244 249 252
199 200 201 203 206 207 209 210 211 212 213 215 217 218 218 218 216 214 215 215 216 217 218 218 219 219 219 220 222 224 226 226 225 224 223 223 223 223 223 223 223 224 224 225 225 225 225 227 230 229 228 228 229 228 229 231 234 238 238 234 232 232 230 228 227 228 238 246 246 241 239 241 244 245 245 245 244 241 238 237 237 237 240 246 250
200 200 201 203 205 207 208 209 210 211 213 215 217 218 219 219 217 216 216 216 216 218 219 219 218 218 219 221 222 224 225 225 224 224 223 224 224 223 223 222 223 224 225 226 226 225 225 227 229 229 228 229 231 231 231 232 234 237 239 238 236 235 234 232 232 234 238 245 250 248 244 243 244 246 248 247 243 241 239 239 238 238 241 244 247
200 201 202 203 204 206 207 208 210 211 212 214 216 218 218 218 218 218 217 216 217 218 218 218 218 219 220 222 223 224 225 225 224 223 224 224 224 225 224 224 224 224 226 227 227 227 227 228 230 229 227 227 230 232 232 232 234 235 238 240 239 239 238 236 236 237 238 242 249 252 251 248 246 246 247 245 240 237 236 237 238 240 243 245 246
199 201 203 204 204 206 207 208 209 211 212 214 216 217 218 218 219 218 218 217 217 218 218 218 218 220 222 223 224 225 225 225 224 224 224 224 224 225 225 226 226 226 227 227 228 228 228 231 232 230 226 227 229 232 233 233 234 235 236 238 240 240 240 239 239 238 238 242 246 250 251 250 247 245 242 240 238 236 234 236 239 241 244 246 246
199 200 202 204 206 207 207 208 209 211 212 214 215 216 217 218 218 218 218 218 218 218 218 218 219 221 222 223 224 225 225 224 224 224 224 224 224 224 225 226 227 228 229 229 229 230 230 232 233 231 229 229 231 233 234 234 234 235 236 237 239 240 240 240 239 237 238 241 244 247 248 249 248 247 245 241 239 240 238 236 238 240 241 243 245
198 199 201 204 207 208 209 209 210 211 213 214 215 216 217 218 218 218 218 218 218 218 218 219 220 221 223 224 225 226 225 224 224 224 224 224 224 224 225 226 227 228 230 231 231 231 231 232 233 233 233 233 234 235 236 235 234 235 236 237 237 238 239 239 238 237 236 238 242 245 246 247 246 246 246 240 235 237 236 233 236 239 239 240 243
198 200 201 204 207 209 209 210 211 212 213 214 215 216 217 217 217 218 218 218 219 220 220 220 221 221 223 224 226 226 225 225 224 224 224 223 223 224 225 226 226 228 229 231 233 233 233 233 234 235 236 237 238 238 239 239 237 236 237 236 235 236 237 238 238 237 235 237 241 244 244 244 243 241 239 234 232 235 235 232 234 239 239 241 243
198 200 202 205 207 208 209 210 211 212 213 214 215 216 217 217 217 218 218 219 220 220 220 221 221 222 223 224 226 226 226 226 226 226 225 224 224 224 225 227 228 228 229 230 232 234 234 235 236 237 238 240 241 242 242 242 241 241 241 239 236 234 234 235 236 236 234 235 239 240 239 240 241 238 236 236 237 238 236 231 233 237 237 240 245
198 201 203 205 206 207 208 210 211 212 213 214 215 216 217 217 217 218 219 220 220 220 221 221 222 223 224 225 226 226 226 227 227 228 227 226 225 224 225 228 229 230 230 230 231 234 235 236 238 238 239 240 242 244 245 245 244 244 244 243 241 238 235 234 234 234 232 233 237 237 235 238 241 239 238 239 239 237 235 232 231 233 231 231 242
199 201 204 205 205 206 208 209 210 212 213 214 215 216 216 217 218 218 219 219 220 220 221 222 223 223 223 225 226 226 227 228 228 229 229 228 227 226 226 228 230 231 232 232 233 234 235 236 238 239 239 240 242 243 244 246 246 246 246 245 244 243 241 239 238 235 232 232 235 235 234 237 242 241 238 238 238 236 235 233 231 231 229 229 235
199 201 204 205 205 206 207 208 210 211 213 214 215 215 215 216 218 218 219 220 219 220 222 222 224 224 223 225 227 228 229 230 229 229 230 230 229 228 228 229 230 232 233 233 234 234 235 237 238 239 240 241 242 242 243 245 246 247 247 247 245 244 244 244 244 242 238 236 236 237 238 237 240 242 242 239 236 233 232 231 231 231 230 231 235
198 200 202 204 205 206 207 208 209 211 212 213 213 213 214 215 217 218 219 219 219 221 222 223 225 225 224 225 227 229 231 231 231 230 231 231 231 230 229 230 231 233 234 235 235 236 237 237 238 240 241 241 241 242 242 244 245 246 246 246 245 244 244 244 245 244 242 240 240 243 245 242 242 246 247 242 236 233 231 231 232 231 232 236 240
200 200 201 203 205 205 206 207 208 210 211 211 211 212 213 214 216 217 218 219 220 222 223 223 225 226 226 226 228 230 232 232 232 232 232 232 232 231 230 230 232 234 236 237 237 238 239 239 240 242 243 242 242 242 242 243 244 245 245 246 246 246 244 244 243 243 242 241 242 245 249 248 247 249 250 245 241 240 238 238 238 236 237 240 244
203 202 201 203 204 205 205 205 207 208 209 210 210 211 212 213 215 216 217 219 221 223 224 225 226 228 228 227 228 231 233 233 232 233 233 233 232 231 230 230 232 234 236 238 239 240 241 241 242 244 245 246 245 245 245 244 244 244 245 246 247 247 248 247 246 245 245 244 244 247 250 252 251 252 251 248 246 246 243 242 241 238 236 240 244
207 204 203 203 203 204 204 204 205 207 207 208 209 210 211 213 215 215 215 217 220 222 224 225 227 229 229 228 229 232 233 233 233 234 235 234 232 230 229 229 231 234 237 239 240 241 242 243 244 245 247 248 248 248 247 246 244 244 245 246 248 249 250 251 249 249 249 249 249 250 252 254 254 254 254 252 250 248 241 237 237 231 228 234 239
209 208 206 204 204 203 203 203 205 206 207 208 209 210 211 212 214 214 214 216 218 221 223 225 227 229 230 230 231 232 233 234 234 235 235 234 232 230 229 229 231 234 237 239 241 242 243 244 245 246 247 249 250 250 249 246 245 245 245 247 248 250 251 252 250 251 252 252 253 253 253 255 254 254 255 254 252 248 240 237 236 229 224 229 234
212 211 209 206 205 204 203 203 204 206 207 208 209 210 211 212 214 214 214 216 218 220 222 225 227 229 231 232 233 234 234 234 234 235 235 234 233 232 229 229 231 234 237 239 241 243 244 245 246 247 249 251 252 252 251 248 246 246 246 246 248 251 253 254 252 252 252 253 254 254 254 255 254 254 254 253 252 249 244 242 239 231 227 230 230
214 214 212 209 206 206 205 204 204 205 208 210 210 210 211 212 213 213 214 216 218 220 222 224 227 229 231 232 234 234 234 234 234 234 234 234 233 232 229 228 231 234 237 239 241 243 244 246 247 248 250 252 253 254 253 251 249 249 247 245 247 252 256 257 255 254 252 252 254 255 255 257 255 253 253 252 251 248 245 243 240 233 231 231 227
219 216 213 211 208 207 206 205 205 206 208 209 210 211 211 211 211 212 213 215 217 220 222 223 226 229 231 232 233 234 233 233 233 233 233 233 232 231 229 229 231 233 236 239 240 242 245 246 248 250 251 253 255 255 254 253 252 251 249 247 250 254 257 257 257 255 254 254 256 258 258 258 255 253 251 250 248 247 244 243 240 235 232 230 225
230 223 217 212 209 207 207 207 206 207 208 208 208 209 210 211 211 211 212 213 215 218 220 222 225 229 232 232 233 233 233 233 234 234 234 233 232 230 230 232 233 233 235 237 239 241 245 247 249 251 253 254 256 256 257 257 255 254 254 254 256 257 257 256 256 258 261 264 264 263 262 260 257 254 252 249 248 247 244 243 242 238 235 232 225
238 230 223 217 212 209 207 207 206 206 207 207 206 207 209 209 210 210 210 211 213 216 219 221 223 227 230 232 233 234 234 234 235 235 235 234 234 233 234 236 236 235 234 237 239 242 245 248 251 253 254 256 258 259 261 261 260 259 261 262 263 262 259 257 257 261 269 271 269 265 263 263 260 258 255 253 252 251 248 247 245 239 234 232 230
245 231 226 221 216 212 208 206 205 204 205 205 205 205 206 207 208 209 209 209 211 214 216 218 221 225 228 230 232 232 232 234 235 237 237 236 235 237 238 240 240 239 239 240 243 245 247 249 251 254 256 258 260 262 264 265 264 265 267 268 269 268 264 261 258 254 258 260 261 262 263 264 263 261 260 259 259 258 255 251 248 240 233 233 232
256 233 226 221 217 213 209 205 204 203 203 202 202 203 203 204 206 207 207 208 209 212 213 215 217 221 225 228 230 230 231 233 235 237 237 237 237 239 240 242 243 242 241 242 244 245 247 249 252 255 258 261 263 265 266 267 268 270 271 273 275 274 273 270 251 230 249 256 257 260 264 266 265 264 265 266 266 265 259 253 247 238 232 231 231
271 240 227 221 216 210 205 201 200 200 200 200 201 202 202 202 204 204 204 206 208 210 210 212 215 219 223 225 227 229 232 234 235 236 235 235 237 238 240 242 243 242 241 242 243 244 245 247 251 254 259 263 266 269 272 274 276 277 278 281 283 283 285 285 248 215 241 256 258 260 265 269 271 270 270 270 268 265 261 252 243 233 226 224 226
289 248 229 220 213 206 200 196 193 193 194 197 200 202 202 201 201 202 202 204 206 208 209 210 212 216 219 222 224 228 230 230 229 230 230 231 235 237 239 241 242 242 243 245 246 248 250 253 256 260 264 268 270 273 278 280 284 286 288 292 296 297 300 302 285 243 245 255 256 255 259 266 271 271 269 268 265 263 261 254 243 234 226 221 222
302 257 231 216 206 201 196 189 183 182 185 189 194 196 198 200 201 203 205 204 205 206 208 210 213 216 218 220 221 222 224 224 224 225 226 227 230 232 235 238 241 244 247 249 252 255 257 261 264 266 270 273 275 280 285 289 294 298 300 304 307 309 310 311 304 289 275 266 260 256 257 261 265 267 266 264 261 261 261 256 247 238 228 221 220
315 265 230 211 199 192 186 179 174 173 173 174 175 177 186 195 202 207 210 210 211 213 213 214 218 220 220 219 215 212 213 217 220 221 221 220 221 220 219 221 224 229 236 240 245 250 255 262 271 281 290 297 301 306 310 312 313 313 314 316 316 316 315 313 309 304 299 289 275 266 262 262 263 265 265 263 261 260 259 255 249 241 230 221 221
323 298 223 203 191 179 170 168 169 169 168 165 159 154 162 185 199 205 210 213 217 219 220 223 225 223 219 215 213 215 217 214 208 205 203 198 193 190 187 189 194 200 209 216 222 240 260 279 305 321 329 334 337 337 337 336 333 331 330 329 327 325 323 320 317 315 311 305 295 284 276 272 270 269 267 264 263 263 261 256 250 242 231 222 220
310 322 206 188 181 170 163 162 164 164 163 161 157 148 138 139 165 194 206 214 218 218 220 225 227 223 218 212 204 204 207 202 191 187 187 182 180 181 181 188 199 206 214 219 211 206 336 12 22 16 15 16 11 3 357 352 346 342 339 334 331 330 327 322 321 319 314 308 301 294 286 279 275 274 272 270 270 268 264 259 252 243 234 226 222
311 291 247 184 172 168 166 164 162 161 157 155 155 150 137 119 103 108 158 195 207 209 210 211 210 207 208 207 195 179 174 175 174 172 170 166 164 163 160 162 163 162 172 170 134 101 85 76 64 49 40 34 24 13 6 360 354 348 343 337 332 330 327 324 323 321 316 311 306 299 293 286 280 277 275 274 273 272 269 264 255 245 235 228 224
336 291 256 207 173 168 169 167 163 161 157 154 153 151 144 132 115 101 102 116 138 155 162 167 169 168 169 177 177 165 156 154 152 150 149 149 148 146 141 134 126 127 138 133 113 96 85 77 70 60 50 41 30 19 14 8 1 354 347 339 332 329 330 331 330 327 323 319 314 306 300 294 286 280 276 273 272 272 270 267 261 251 239 229 224
352 348 265 222 185 173 170 169 165 161 159 157 155 152 149 145 136 124 115 110 110 114 119 125 133 137 138 140 143 143 141 140 141 143 145 145 144 145 142 132 120 115 117 112 102 95 90 85 78 69 59 49 36 24 16 10 3 356 349 343 338 336 337 338 338 335 332 329 322 315 310 303 294 287 281 276 272 269 267 266 266 260 246 235 229
12 41 335 217 191 179 173 169 165 160 158 156 154 151 148 145 140 135 130 124 118 114 114 116 120 123 126 129 132 135 138 140 140 141 142 142 141 141 135 122 110 102 99 97 95 95 94 88 81 72 61 50 39 28 20 15 11 6 360 354 351 349 348 348 346 344 343 340 337 331 326 320 311 301 293 285 278 274 271 270 273 269 256 243 232
93 90 67 98 168 174 172 167 164 162 159 155 152 148 144 141 136 131 128 126 122 119 118 117 116 116 118 121 125 128 132 134 133 132 132 132 134 135 127 116 108 103 99 96 96 97 93 86 79 69 55 41 36 33 28 21 18 16 13 7 2 1 0 359 359 359 359 358 358 358 356 351 344 338 332 323 311 303 306 343 66 65 75 83 83
94 96 91 98 136 158 162 160 158 157 153 148 144 138 133 132 131 129 126 125 123 123 124 122 120 118 117 118 121 123 124 123 123 124 124 125 125 125 122 118 114 110 105 102 101 101 95 86 76 62 46 39 40 39 31 25 23 24 25 21 16 12 11 11 12 11 9 8 8 9 10 9 10 17 33 52 65 72 77 85 90 90 90 89 84
92 91 101 111 128 141 143 142 143 141 136 131 129 126 124 126 128 127 127 128 127 127 129 129 126 124 123 123 124 124 122 121 119 118 118 120 120 119 118 118 117 112 108 106 105 104 99 88 73 55 42 42 48 41 30 28 32 35 35 31 27 22 20 20 20 16 13 14 14 13 14 17 21 28 36 48 61 73 84 91 95 94 92 93 94
90 90 106 118 127 133 133 129 127 127 126 125 124 125 127 129 128 127 128 129 128 128 129 129 129 130 130 131 133 133 130 125 121 117 114 113 117 120 121 120 117 113 112 110 107 106 102 90 72 54 44 48 51 39 29 35 46 46 44 39 33 28 23 20 19 18 17 19 21 22 25 30 36 42 46 47 49 56 69 84 96 100 101 102 104
88 94 105 112 122 132 134 129 124 125 127 128 129 131 132 133 135 136 134 130 126 126 127 128 131 136 137 137 140 142 134 126 121 119 114 111 115 125 129 126 121 116 113 110 107 106 104 92 70 51 44 50 49 37 31 46 60 58 56 51 39 32 27 22 22 28 32 34 38 42 45 48 52 55 57 58 56 56 58 65 77 90 100 107 110
95 97 100 102 109 121 127 128 130 134 133 131 132 134 135 137 141 142 136 128 125 125 126 127 132 138 140 137 137 136 129 123 122 119 110 104 107 116 125 127 123 115 109 107 106 107 103 87 69 53 47 52 52 40 36 50 68 67 64 58 45 39 38 35 37 47 53 54 56 58 59 60 63 64 64 66 68 70 71 70 72 78 88 98 106
96 94 94 92 94 99 104 111 122 128 128 129 132 134 135 136 138 135 130 126 125 124 123 123 128 133 134 130 126 122 119 119 120 116 108 102 98 98 104 110 111 108 106 107 106 102 91 78 68 59 56 59 57 45 40 41 41 36 38 43 45 50 57 60 61 65 67 67 70 72 71 72 75 75 75 76 79 81 81 81 80 81 85 92 99
93 89 88 86 84 84 86 91 97 102 105 109 116 123 127 128 127 124 122 120 119 120 120 121 125 130 132 134 132 126 122 124 126 123 117 109 97 89 87 88 88 88 89 93 90 72 59 68 69 61 59 62 61 54 47 40 32 24 18 24 44 68 83 89 87 79 74 75 78 80 79 79 82 85 87 88 89 90 92 92 91 89 89 92 96
93 88 86 85 82 80 81 83 84 86 88 90 92 96 101 104 102 100 98 96 96 100 102 103 106 111 120 129 131 124 120 122 125 125 121 112 100 91 84 79 78 76 75 80 86 75 65 69 63 48 48 55 60 61 53 44 44 43 33 27 40 87 117 116 104 90 84 87 88 87 83 78 77 80 84 87 89 91 94 98 101 103 106 110 112
96 91 87 84 82 80 80 81 82 83 85 85 83 83 85 88 87 86 86 86 86 87 87 86 88 89 91 96 99 97 95 96 97 98 98 97 100 109 109 99 86 75 69 72 79 77 67 56 40 25 27 51 60 66 60 46 48 54 46 34 39 83 137 142 129 108 97 93 91 89 82 74 71 72 73 72 73 76 83 94 105 112 117 121 123
97 94 91 87 84 82 81 81 82 83 83 83 81 79 79 81 82 83 83 84 84 84 82 82 84 84 83 84 85 84 84 85 84 83 83 85 90 105 132 147 136 104 87 89 94 86 69 46 26 16 21 41 49 55 51 38 33 38 35 22 13 18 64 136 153 146 99 85 82 79 70 61 61 66 65 60 56 55 61 83 114 131 138 142 144
95 92 91 88 86 84 82 81 81 81 81 80 80 79 78 78 79 80 80 81 82 81 80 79 80 79 78 78 77 76 77 77 77 76 77 79 82 88 99 117 130 132 135 145 152 160 171 197 357 5 22 36 36 33 33 29 14 4 6 3 351 343 337 324 308 301 317 1 35 43 35 32 39 47 46 44 42 44 52 61 84 140 164 175 179
87 86 85 84 82 81 80 80 80 80 80 80 80 78 78 78 77 76 76 77 78 78 77 76 76 75 75 74 74 74 76 76 76 74 73 73 77 83 89 98 107 112 116 127 144 169 194 208 216 214 70 52 33 26 27 27 9 350 338 324 322 325 322 310 300 295 299 311 325 339 353 11 29 40 39 37 31 22 26 37 40 190 205 213 213
78 80 80 79 79 78 78 79 79 79 80 82 81 80 79 78 77 75 75 76 76 76 76 75 74 72 71 71 71 72 75 75 74 72 69 67 68 73 80 89 96 98 98 99 103 114 132 153 163 160 166 208 267 250 247 269 309 309 289 270 274 284 286 284 286 288 289 293 300 311 331 1 33 43 37 37 36 36 44 61 87 189 217 230 230
74 76 77 78 78 79 79 79 79 79 79 80 80 80 80 79 78 77 76 75 73 73 73 74 73 71 70 68 68 68 70 71 71 70 70 68 67 66 70 75 78 80 81 82 83 85 87 85 86 95 107 129 205 222 240 259 270 271 262 255 262 271 272 268 268 273 279 286 292 298 303 311 341 37 41 26 37 56 69 69 69 89 132 185 209
75 76 76 77 78 79 79 78 78 78 78 78 78 78 78 78 77 76 75 73 72 71 71 71 71 70 70 69 68 67 68 69 69 70 71 71 70 67 67 68 69 71 74 74 74 74 74 71 72 77 82 83 83 70 306 301 287 267 256 255 262 268 269 266 266 268 268 268 272 277 277 275 279 296 300 304 6 45 58 52 48 69 94 116 173